Location: Helion Bumpstead
(52.0500°N, 0.4000°E)
Time: 20:48:30
(UTC+00:00)

NOAA 12 - Pass Details

Date: 15 November 2025
Orbit: 793 x 812 km, 98.6° (Epoch: 14 December)

Event Time Altitude Azimuth Distance (km) Brightness Sun altitude
Rises 05:55:56 0° 12° (NNE) 3,350 7.3 -12.6°
Reaches altitude 10° 05:58:20 10° 7° (N) 2,414 6.5 -12.2°
Maximum altitude 06:03:29 51° 293° (WNW) 1,015 4.3 -11.5°
Drops below altitude 10° 06:08:36 10° 219° (SW) 2,395 6.3 -10.7°
Sets 06:10:58 0° 214° (SW) 3,320 7.1 -10.4°
